Regional Weather Roundup
Issued by NWS

Home | Current Version | Previous Version | Text Only | Print | Product List | Glossary On
Versions: 1 2 3 4 5 6 7 8 9 10 11 12 13 14 15 16 17 18 19 20 21 22 23 24 25 26 27 28 29 30 31 32 33 34 35 36 37 38 39 40 41 42 43 44 45 46 47 48 49 50
000
ASUS43 KLSX 302007
RWRMO

WEATHER SUMMARY FOR MISSOURI
NATIONAL WEATHER SERVICE SPRINGFIELD MO
300 PM CDT TUE SEP 30 2014

NOTE: "FAIR" INDICATES FEW OR NO CLOUDS BELOW 12,000 FEET WITH NO
       SIGNIFICANT WEATHER AND/OR OBSTRUCTIONS TO VISIBILITY.
       CURRENT SKY AND/OR WEATHER CONDITIONS ARE NOT AVAILABLE FOR
       CHILLICOTHE AND FARMINGTON.

MOZ001>031-035>038-043-044-053-054-302100-
...NORTHERN AND WESTERN MISSOURI...

CITY           SKY/WX    TMP DP  RH WIND       PRES   REMARKS
KANSAS CTY INT MOSUNNY   82  58  43 S17       29.82F
KANSAS C DTWN  MOSUNNY   86  57  37 S14G22    29.81F
LEE`S SUMMIT   MOSUNNY   81  56  42 S9G22     29.84F
ST JOSEPH      MOSUNNY   84  57  39 S17       29.80F
CHILLICOTHE      N/A     84  59  42 S10G18    29.85F
KIRKSVILLE     SUNNY     73  62  68 E10       29.90F

$$
MOZ066>068-077>081-088>096-101>105-302100-
...SOUTHWEST MISSOURI...

CITY           SKY/WX    TMP DP  RH WIND       PRES   REMARKS
SPRINGFIELD    MOSUNNY   81  56  42 S6        29.89F
JOPLIN         MOSUNNY   84  59  42 S14G21    29.86F

$$
MOZ032>034-039>042-045>050-055>058-069>072-302100-
...CENTRAL MISSOURI...

CITY           SKY/WX    TMP DP  RH WIND       PRES   REMARKS
COLUMBIA       MOSUNNY   84  53  34 CALM      29.88F
JEFFERSON CITY SUNNY     87  49  26 S8        29.86F
ROLLA          MOSUNNY   82  53  36 SW7       29.88F
SEDALIA        SUNNY     86  54  33 S13       29.87F
WHITEMAN AFB   SUNNY     84  59  42 SW10G18   29.85F
OSAGE BEACH    PTSUNNY   84  55  37 S3        29.87F

$$
MOZ051-052-059>065-302100-
...EAST CENTRAL MISSOURI...

CITY           SKY/WX    TMP DP  RH WIND       PRES   REMARKS
ST LOUIS INTL  MOSUNNY   85  55  35 E3        29.90F
SPIRIT OF STL  MOSUNNY  N/A N/A N/A CALM      29.88F
ST CHARLES     MOSUNNY   84  58  40 NE8       29.89F

$$
MOZ072>076-082>087-097>100-106>115-302100-
...SOUTH CENTRAL AND SOUTHEAST MISSOURI...

CITY           SKY/WX    TMP DP  RH WIND       PRES   REMARKS
CAPE GIRARDEAU SUNNY     86  53  32 NE5       29.89F
FARMINGTON     SUNNY     84  48  28 SW6       29.92F
POPLAR BLUFF   SUNNY     86  51  29 N8        29.88F
WEST PLAINS    PTSUNNY   82  52  35 CALM      29.93F

$$


USA.gov is the U.S. government's official web portal to all federal, state and local government web resources and services.